Lapse_Rate
3.9 4.2 4.0 3.7 3.5 3.4 4.1 4.4 6.4 4.7 4.6 5.3 5.4 6.5 6.5 6.8 6.6 6.9 6.5 6.5 6.5 6.5 6.5 6.5 6.5 6.5 6.5 6.4 6.3 6.5 6.5 6.5 6.5 6.5 6.5 6.5 6.5 6.5 6.5 6.5 6.5 6.5 6.5 6.5
3.5 4.2 3.5 4.0 2.9 3.5 2.9 4.1 4.1 4.8 5.0 6.5 6.5 6.5 6.5 6.6 6.5 6.5 6.5 6.5 6.5 6.5 6.5 6.5 6.5 6.5 6.4 6.4 6.5 6.5 6.5 6.5 6.5 6.5 6.5 6.5 6.5 6.5 6.5 6.5 6.5 6.5 6.5 6.5
3.5 3.8 3.5 3.5 3.3 3.9 2.3 2.9 6.5 4.3 4.2 4.0 6.5 6.5 6.5 6.5 6.6 6.6 6.6 6.5 6.5 6.5 6.5 6.5 6.5 6.5 6.5 6.4 6.5 7.0 6.3 6.5 6.5 6.5 6.5 6.5 6.5 6.5 6.5 6.5 6.5 6.5 6.5 6.5
3.4 3.7 3.4 3.4 2.9 3.4 2.7 3.3 5.7 4.7 6.5 6.1 6.5 6.5 6.5 6.5 6.5 6.6 6.8 6.5 6.5 6.5 6.5 6.5 6.5 6.5 6.5 6.5 6.7 6.3 6.5 6.5 6.5 6.5 6.5 6.5 6.5 6.5 6.5 6.5 6.5 6.5 6.5 6.5
4.3 3.7 3.4 3.2 2.6 3.2 2.8 3.2 4.4 3.6 4.9 5.7 6.5 6.5 6.5 6.5 6.5 6.5 6.5 6.5 6.5 6.5 6.5 6.5 6.5 6.5 6.5 6.5 6.5 6.5 6.5 6.5 6.5 6.5 6.5 6.5 6.5 6.5 6.5 6.5 6.5 6.5 6.5 6.5
4.0 3.3 3.2 2.9 2.7 3.1 2.0 1.4 2.7 2.8 5.7 6.4 6.5 6.5 6.5 6.5 6.5 6.6 6.5 6.5 6.5 6.5 6.5 6.4 6.6 6.8 6.6 6.6 6.5 6.5 6.5 6.5 6.5 6.5 6.5 6.5 6.5 6.5 6.5 6.5 6.5 6.5 6.5 6.5
3.6 3.7 2.8 2.5 3.1 2.5 1.3 0.6 1.2 3.1 6.5 6.5 6.5 6.5 6.5 6.5 6.5 6.5 6.6 6.5 6.5 6.4 5.7 5.3 5.8 6.2 6.8 6.7 6.6 6.6 6.5 6.5 6.5 6.5 6.5 6.5 6.5 6.5 6.5 6.5 6.5 6.5 6.5 6.5
3.5 3.0 2.3 2.3 3.4 3.3 1.0 0.3 1.5 2.2 6.5 5.7 6.4 6.4 6.5 6.3 6.1 6.4 6.5 6.7 6.1 5.4 5.8 6.5 6.5 6.5 6.5 6.5 6.5 6.5 6.5 6.5 6.5 6.5 6.5 6.5 6.5 6.5 6.5 6.5 6.5 6.5 6.5 6.5
3.6 2.6 2.3 2.4 3.2 3.4 0.1 -0.4 -0.2 1.3 4.5 6.2 6.1 6.0 6.3 6.5 6.5 6.5 6.4 6.7 5.6 6.1 6.5 6.5 6.5 6.5 6.5 6.5 6.5 6.5 6.5 6.5 6.5 6.5 6.5 6.5 6.5 6.5 6.1 6.5 6.5 6.4 6.4 6.5
2.9 2.8 3.4 3.7 3.2 3.5 0.5 -0.5 0.4 1.1 4.0 4.5 4.8 5.8 6.1 5.5 6.0 6.5 5.9 6.1 5.2 6.1 6.5 6.5 6.5 6.5 6.5 6.5 6.5 6.5 6.5 6.5 6.5 6.5 6.5 6.5 6.5 6.1 6.1 6.5 6.5 6.3 5.8 5.8
3.0 2.6 3.6 3.0 3.3 3.2 0.6 0.1 1.2 0.9 3.3 5.0 5.9 5.7 5.4 5.3 4.7 6.5 5.5 6.2 5.8 6.2 6.5 6.5 6.5 6.5 6.5 6.5 6.5 6.5 6.5 6.5 6.5 6.5 6.5 6.5 6.0 6.3 6.5 6.4 6.4 5.9 4.9 5.1
3.3 3.3 3.2 3.2 3.6 3.6 1.8 1.0 1.7 1.1 1.7 5.0 5.6 5.4 5.7 5.5 5.7 4.4 4.9 5.8 6.5 6.2 6.5 6.5 6.5 6.5 6.5 6.5 6.5 6.5 6.5 6.5 6.5 6.5 6.5 6.1 5.8 6.3 6.0 5.4 5.7 5.7 5.2 5.4
3.6 3.4 3.1 3.5 3.9 3.4 2.0 0.6 1.1 0.7 4.2 4.2 4.3 5.5 6.2 5.6 5.3 5.4 5.0 6.1 6.8 6.7 5.9 6.3 6.5 6.5 6.5 6.5 6.5 6.5 6.5 6.0 6.5 6.5 6.4 6.4 5.6 5.5 5.9 5.7 6.1 5.8 5.2 5.5
5.0 4.6 3.7 3.9 4.1 3.6 2.5 0.3 0.2 1.3 2.4 4.9 5.6 6.6 5.6 6.5 5.7 5.8 5.7 5.9 6.4 5.9 5.3 6.7 6.5 6.5 6.4 6.5 6.5 6.5 6.0 6.2 6.5 6.5 6.4 5.9 5.5 5.6 6.0 6.3 6.4 6.1 5.2 5.1
5.9 4.8 4.5 4.0 3.8 2.6 1.8 -0.3 0.2 0.8 2.6 5.2 4.9 5.7 6.6 6.4 6.4 5.7 6.3 6.2 5.6 4.6 5.3 6.5 6.5 6.2 6.4 6.4 6.5 6.5 6.5 6.5 6.5 6.5 6.2 6.0 5.9 6.0 5.6 5.6 5.8 6.1 6.0 4.9
5.6 4.6 4.7 4.0 3.7 3.8 3.0 3.2 1.3 1.7 0.9 1.5 6.5 5.3 7.0 7.0 6.2 6.7 7.1 6.3 5.8 5.1 5.0 5.6 4.2 6.0 6.5 6.5 6.5 6.7 5.9 4.9 5.4 6.0 5.2 5.6 5.9 6.5 6.4 6.3 5.7 5.6 5.2 5.1
5.1 5.5 4.2 4.4 3.2 1.8 1.5 3.3 2.2 2.4 1.4 2.2 5.9 6.1 6.3 7.1 8.3 7.6 7.2 7.7 7.0 6.0 5.6 5.5 5.2 5.1 6.6 6.5 6.5 6.8 5.8 4.6 5.9 4.5 4.5 6.3 5.2 6.0 5.6 6.0 5.8 5.8 5.0 4.8
5.6 5.4 4.8 4.5 4.6 3.3 1.7 1.6 3.0 2.3 2.0 2.9 6.5 6.6 5.3 6.6 5.5 6.5 6.6 6.3 6.5 6.6 6.5 5.4 5.7 5.7 5.3 6.5 6.4 6.2 5.9 5.0 5.8 5.1 5.6 5.9 6.1 6.5 6.3 6.1 5.9 6.3 5.4 5.1
5.8 5.7 5.2 3.9 3.4 2.3 1.3 3.1 3.4 2.1 2.1 3.2 4.7 6.5 6.5 5.5 4.7 7.3 6.1 6.3 6.5 6.4 6.5 6.6 6.4 6.5 6.5 6.5 5.5 5.7 5.7 6.2 6.3 6.5 4.7 5.9 6.7 6.9 6.6 6.2 6.4 6.0 5.5 5.1
6.0 4.9 3.9 3.9 3.4 4.0 3.3 3.4 3.1 1.8 2.8 4.1 5.9 3.9 6.5 4.9 4.7 6.7 6.5 6.5 6.5 6.5 6.4 5.8 6.5 6.5 5.5 5.1 4.2 4.1 5.4 6.3 6.2 7.0 6.7 5.6 5.3 5.6 5.7 6.1 6.0 5.3 4.8 4.9
4.3 2.8 5.4 4.9 5.2 3.5 4.4 5.5 5.8 4.8 5.9 4.9 4.5 3.1 5.9 5.3 6.3 6.5 6.5 6.5 6.4 6.5 6.5 6.5 6.5 6.5 5.4 4.4 4.8 5.0 6.1 6.6 6.5 6.6 6.5 5.8 5.9 5.8 5.0 5.2 5.8 5.6 5.5 4.9
2.7 1.4 4.8 4.6 4.7 4.7 6.3 6.5 6.4 6.5 6.5 5.2 5.0 4.2 4.1 4.8 5.6 6.1 6.3 6.5 6.5 6.5 6.3 6.5 6.5 6.5 4.8 5.0 5.6 5.5 5.0 5.5 6.7 6.8 6.4 6.1 5.5 5.7 6.2 5.8 6.0 6.0 5.8 5.5
2.2 2.3 4.6 5.9 5.8 6.5 6.5 6.5 6.5 6.5 5.4 5.1 5.0 6.3 4.8 5.1 5.0 5.5 6.5 6.5 6.5 6.0 6.5 6.5 6.5 4.6 4.8 4.2 4.4 4.7 4.6 5.3 5.5 6.9 7.2 7.0 6.4 6.6 6.4 5.8 5.7 5.3 5.3 5.3
3.3 4.4 6.5 6.5 6.5 6.5 6.5 6.5 6.5 5.5 5.2 5.4 4.1 3.2 4.6 5.1 5.4 6.3 6.5 6.5 6.3 6.5 6.5 6.5 6.5 4.0 4.3 4.0 3.9 3.7 3.7 3.2 3.4 4.6 5.3 6.2 6.4 6.1 5.9 5.3 4.3 4.2 5.0 4.8
3.2 4.4 6.5 6.5 6.0 5.6 5.6 5.3 5.9 5.5 5.4 3.8 4.2 4.3 4.1 6.5 6.5 6.6 6.5 6.5 6.5 6.5 6.5 6.5 1.9 3.6 3.5 2.9 3.3 1.7 1.2 0.4 -0.8 1.1 3.7 6.2 5.9 5.3 4.3 3.6 3.7 3.7 4.0 4.0
3.0 3.0 5.9 6.5 6.4 6.4 6.0 6.2 6.5 4.9 3.7 3.0 3.0 6.4 6.5 6.5 6.5 6.5 6.5 6.5 6.5 6.5 6.6 0.7 -0.5 0.4 0.3 0.6 1.9 2.3 1.7 1.6 1.3 2.4 5.1 6.8 5.5 5.1 3.5 2.0 1.3 2.2 2.6 2.8
3.5 5.6 4.6 5.3 5.5 6.3 6.2 6.3 5.1 3.9 3.2 6.5 5.8 6.5 6.5 6.5 6.5 6.5 6.5 6.5 6.5 2.2 1.3 0.1 0.6 0.3 -0.3 -1.6 -1.7 0.2 0.8 0.9 1.6 3.5 7.2 6.4 5.2 4.2 4.3 3.7 3.6 3.2 3.7 3.1
Wind_Speed
28 24 20 16 12 10 10 2 1 3 3 2 1 2 4 3 1 2 2 2 4 4 5 4 2 2 1 4 5 4 3 0 2 1 2 3 3 1 2 3 1 2 2 3
27 24 21 17 16 21 4 4 3 1 3 3 2 2 4 2 1 1 2 3 5 6 3 2 3 3 4 5 4 2 5 3 3 7 4 1 2 2 1 3 3 5 2 3
28 24 22 19 17 18 2 3 2 1 1 2 2 2 2 3 2 2 2 1 3 3 3 6 2 2 1 5 3 7 4 2 2 2 5 1 2 2 2 4 2 5 3 4
29 24 21 18 17 15 3 1 3 4 2 2 4 3 2 1 3 0 1 2 3 3 2 2 2 1 2 1 6 5 3 1 1 5 6 2 2 2 4 3 1 2 5 7
29 23 21 18 16 18 2 4 4 2 2 3 6 3 3 2 3 1 4 2 4 4 2 2 1 3 0 1 3 3 3 2 3 4 4 4 2 4 1 5 0 4 5 2
28 24 21 19 23 13 3 1 1 4 3 3 4 4 4 4 4 1 4 2 1 1 2 2 4 2 3 1 1 1 1 2 4 3 4 2 3 3 4 5 1 6 3 4
26 23 20 20 23 14 3 3 3 4 2 3 4 5 3 5 3 3 2 1 2 1 3 4 1 4 5 4 3 2 2 1 1 2 3 2 2 5 3 8 8 6 10 3
26 23 19 14 20 20 2 1 3 3 3 4 5 7 4 4 4 3 3 2 2 2 2 2 4 2 1 2 3 5 4 2 2 1 1 3 2 5 4 3 2 4 6 7
24 22 17 14 18 14 3 2 1 3 5 1 2 4 3 3 3 2 2 1 4 2 1 1 1 2 2 1 1 1 3 5 3 3 2 2 2 5 4 2 1 6 5 4
26 24 18 15 17 13 4 1 1 4 4 3 4 3 4 3 3 3 3 3 5 1 1 3 3 1 1 1 0 2 1 2 2 3 1 2 3 7 3 2 1 9 5 6
29 26 22 19 14 16 3 1 1 4 3 3 4 3 3 2 3 3 2 2 3 3 2 2 1 1 1 1 3 1 2 1 1 1 3 1 4 3 3 1 3 4 6 3
29 27 23 21 15 11 6 3 2 4 5 3 3 4 4 4 3 3 2 4 2 0 1 2 1 2 1 1 1 5 1 2 2 3 3 1 3 3 2 1 2 3 4 4
29 27 24 21 13 5 5 3 2 4 4 3 4 4 3 5 4 2 3 2 1 2 2 2 1 1 2 1 1 3 5 3 0 3 6 4 5 4 3 4 3 5 5 7
27 26 25 21 13 10 5 4 0 3 4 4 1 2 4 2 5 5 2 3 3 3 2 2 1 1 2 2 2 0 4 3 3 2 4 3 4 3 3 3 6 6 7 7
27 25 23 20 17 18 14 3 3 2 4 4 3 3 1 3 3 6 5 4 3 2 2 2 2 0 0 1 2 1 4 1 1 1 2 1 3 1 2 3 4 4 4 6
28 25 24 22 19 9 3 3 2 3 2 4 3 1 3 3 6 6 5 3 3 2 1 1 3 3 0 1 1 2 3 5 4 2 4 3 5 2 3 2 3 3 4 4
30 26 26 18 8 4 3 1 1 2 2 3 3 2 1 5 4 2 2 1 1 1 1 0 2 2 3 2 2 2 5 6 3 6 6 3 5 3 4 3 2 3 4 4
33 30 22 20 21 11 4 4 8 4 3 3 4 1 2 2 2 2 1 2 1 1 1 1 2 1 2 2 2 2 3 6 1 8 7 5 5 3 1 1 2 1 1 2
35 31 21 5 3 2 2 4 5 5 3 3 3 5 4 2 1 2 1 1 1 1 1 2 1 2 3 3 3 1 2 3 5 8 8 4 4 4 3 2 2 2 2 1
37 9 2 2 1 15 8 3 3 4 3 2 2 3 2 3 2 3 3 1 1 2 3 1 1 3 2 3 3 2 2 4 4 6 5 7 5 5 6 6 4 2 2 3
2 3 2 2 6 1 2 2 2 1 1 1 2 3 4 1 3 3 1 2 1 1 2 2 2 3 3 5 2 2 1 2 4 4 4 5 6 6 5 5 4 4 4 2
8 10 6 3 2 2 3 1 1 2 5 2 4 2 3 1 2 2 2 3 2 3 2 2 3 3 3 4 3 2 2 1 5 4 6 6 6 5 5 5 5 3 3 3
4 4 4 3 0 2 7 7 3 2 4 4 3 3 3 2 2 2 2 3 4 1 1 3 3 3 4 4 2 1 2 3 3 6 7 7 6 5 5 5 3 2 4 2
3 5 6 6 3 4 3 3 5 3 5 8 4 2 3 2 3 3 4 4 3 3 3 5 2 6 4 3 1 1 4 5 6 6 7 9 7 6 5 5 4 4 4 3
3 4 6 4 3 3 2 3 4 2 7 5 3 3 3 2 3 2 2 4 3 5 4 3 3 4 4 2 2 4 5 5 4 5 4 9 6 5 5 5 4 3 3 3
3 4 4 2 5 2 2 4 6 1 5 3 3 3 3 1 4 4 5 6 6 4 3 3 3 2 2 3 3 4 5 6 6 6 6 7 5 5 4 2 3 3 2 2
3 2 3 2 4 5 3 3 2 3 3 3 3 4 4 3 3 2 3 4 3 3 2 2 4 4 3 4 4 4 5 5 6 6 6 5 2 1 2 4 3 4 3 3
Wind_Direction
179 180 185 180 183 154 141 173 132 220 103 67 236 132 187 120 211 205 268 220 292 333 339 26 99 70 3 263 289 328 298 36 11 4 48 122 129 356 9 100 116 227 198 277
171 178 182 174 179 168 146 163 139 292 95 137 267 197 128 120 154 28 334 22 349 338 316 83 40 68 306 315 331 35 322 352 8 344 346 79 79 216 9 86 79 230 122 271
167 176 182 174 187 187 134 106 100 346 138 208 139 117 94 130 133 154 80 278 6 345 20 47 65 93 309 349 36 346 30 333 153 195 252 158 124 194 196 101 277 333 11 358
169 174 181 177 188 171 150 115 215 184 201 269 136 108 108 123 121 254 181 224 47 344 351 121 63 49 318 16 7 5 58 302 295 287 291 285 26 193 212 104 165 77 296 325
171 170 177 179 176 147 115 142 140 28 131 110 122 154 169 128 83 163 164 205 1 301 67 60 13 21 179 323 22 41 14 294 317 295 253 222 261 310 265 124 325 280 283 294
168 169 178 181 164 157 140 237 30 110 170 159 110 195 159 136 126 166 70 91 288 204 100 311 279 294 202 191 293 234 85 18 342 298 341 159 338 267 199 99 287 319 350 360
166 170 175 190 168 179 137 192 116 101 153 118 159 137 119 137 133 132 28 287 257 194 294 274 194 224 167 148 255 210 217 302 271 286 48 37 287 1 90 153 195 175 292 30
165 169 176 190 181 188 109 163 121 123 103 125 96 129 133 144 121 145 190 280 219 296 313 178 141 131 204 187 233 219 266 298 289 317 333 149 49 9 0 48 86 14 225 227
162 160 166 180 172 185 104 70 111 103 119 291 116 130 130 142 146 93 227 77 290 274 287 62 330 91 108 111 122 153 225 291 330 350 342 70 308 303 325 313 95 330 330 315
156 153 153 164 162 155 116 99 74 91 104 323 50 129 158 118 107 128 58 345 344 266 344 52 39 9 219 111 309 207 222 231 247 288 355 67 316 300 340 134 248 312 292 286
154 150 154 153 147 149 102 126 353 109 96 4 53 48 91 67 79 127 259 62 344 4 104 102 125 101 28 327 356 53 134 144 269 339 77 68 344 359 64 221 293 350 333 355
151 152 162 139 153 159 110 92 332 72 85 141 83 86 77 88 97 135 22 149 76 276 97 49 119 143 253 189 329 344 19 170 215 147 228 295 35 122 55 22 95 356 0 67
149 156 151 139 156 159 131 123 144 73 90 48 50 54 51 45 47 99 119 332 160 80 180 89 66 123 360 49 291 295 357 11 2 74 358 1 51 36 47 12 64 28 5 60
149 155 143 143 136 115 104 104 302 93 120 108 274 85 53 96 61 52 48 121 45 92 38 100 114 131 19 48 276 98 226 8 334 20 2 82 64 35 8 53 37 50 40 35
154 147 143 139 117 105 87 75 53 97 118 128 142 103 83 103 86 74 42 56 76 56 83 142 156 186 290 245 62 337 331 18 73 19 317 243 277 277 315 65 51 31 104 73
143 142 141 124 132 127 61 51 348 3 78 100 109 225 111 71 82 82 69 41 56 66 103 352 315 316 344 289 198 34 8 10 21 6 309 236 265 36 8 71 68 51 84 106
136 135 118 124 100 72 64 137 158 75 71 90 95 80 24 144 117 110 90 23 71 101 136 321 240 291 193 257 199 87 13 345 37 31 0 72 41 337 0 62 99 98 101 90
131 123 117 111 101 110 52 357 25 49 82 72 106 68 69 178 151 124 172 159 203 204 300 251 225 241 166 251 140 79 14 315 35 4 337 283 274 250 19 3 327 266 194 167
123 121 121 79 37 77 153 127 63 63 103 123 105 135 189 162 144 125 178 223 135 130 248 227 203 213 224 213 158 211 272 344 325 327 314 334 348 344 318 298 293 290 247 221
126 110 112 96 342 126 130 27 31 18 353 46 94 117 129 126 160 147 145 164 197 209 223 228 172 255 121 167 179 156 347 304 316 320 335 351 336 340 330 329 320 311 286 303
95 115 93 74 130 84 51 95 128 177 46 98 137 126 128 298 118 143 213 181 199 186 219 173 251 249 208 167 169 176 183 326 297 295 281 289 288 289 295 302 286 286 289 260
144 113 104 110 115 56 113 141 97 187 187 143 118 149 131 118 118 119 207 171 173 205 173 198 244 246 153 141 145 175 198 286 305 295 284 273 273 280 284 291 285 261 260 257
94 79 107 143 55 114 181 172 210 171 169 164 143 109 123 88 69 89 145 168 217 125 206 234 225 193 160 166 155 240 288 300 295 308 298 280 266 260 251 269 283 294 279 230
117 139 135 196 182 232 184 162 136 145 125 124 115 86 112 120 76 127 138 229 76 205 234 230 220 188 181 174 191 284 287 291 280 282 297 299 266 260 260 231 214 231 233 233
122 131 179 181 139 57 73 83 94 92 128 112 93 62 87 55 98 156 146 163 236 201 226 226 209 173 174 210 255 277 283 281 274 269 276 289 258 247 256 241 226 237 253 236
79 69 95 124 85 97 67 100 115 89 128 96 67 105 80 94 141 158 211 143 214 241 211 210 164 197 220 225 268 289 288 290 282 277 275 281 253 248 242 217 198 200 174 238
59 27 36 85 75 123 125 130 144 128 82 123 122 106 174 97 113 216 206 205 217 198 216 193 184 193 223 229 261 289 293 291 284 280 292 286 307 200 208 230 229 202 199 214